Location: East Horndon
(51.5667°N, 0.3500°E)
Time: 07:18:19
(UTC+00:00)

NOSS 3-1 (C) - Pass Details

Date: 08 November 2025
Orbit: 619 x 1583 km, 63.4° (Epoch: 01 December)

Event Time Altitude Azimuth Distance (km) Brightness Sun altitude
Exits shadow 04:27:29 32° 187° (S) 1,216 3.9 -24.5°
Maximum altitude 04:29:32 55° 125° (SE) 904 3.5 -24.2°
Drops below altitude 10° 04:35:05 10° 50° (NE) 2,543 6.4 -23.4°
Sets 04:37:56 0° 46° (NE) 3,641 7.2 -22.9°
